TIME,DELAY(SENSOR),PRES,OXYGEN,RAWTEMP,T(OPTODE),TCPHASE,FLUOR,BETA(BETA700),BETA(BETA412),BETA(BETA440),CDOM,C(CSC),ED(ED411.90),ED(ED443.80),ED(ED489.40),ED(ED554.70),LU(LU412.20),LU(LU443.80),LU(LU489.40),LU(LU555.00),COMP,TILTX,TILTY,CHECK
1369261232,5806,809.4099731445312000,170.0852050781250000,312.3045043945312500,13.2624797821044920,36.8359909057617200,51,100,95,79,78,10454,2146956251,2147515309,2147274560,2147476726,2147084050,2146937270,2147679689,2147125403,2063,-1,8,21469
1369264828,5809,930.4400024414062000,143.0906066894531200,410.2218933105469000,10.2909002304077150,40.5025291442871100,53,111,98,81,79,10432,2146958948,2147516900,2147289764,2147494134,2147085037,2146936713,2147701394,2147122313,1832,-1,8,2898
1369268428,5803,972.7800292968750000,136.6065979003906200,434.3363037109375000,9.5534448623657230,41.4522895812988300,52,110,97,80,81,10446,2146960329,2147511826,2147287360,2147499538,2147087186,2146932324,2147705014,2147122496,3562,-1,8,46227
1369272028,5808,975.6199951171875000,134.9481048583984400,434.4984130859375000,9.5484790802001950,41.6009292602539060,52,107,97,87,80,10444,2146956845,2147516763,2147288000,2147498066,2147086829,2146929097,2147705865,2147121773,44,-1,8,48544
1369275628,5805,968.0300292968750000,142.7248992919922000,437.1619873046875000,9.4668464660644530,40.9716415405273440,53,106,98,80,79,10448,2146959515,2147515428,2147289243,2147500608,2147086107,2146924242,2147706258,2147120512,2921,-1,8,49921
1369279228,5804,972.3599853515625000,132.4250946044922000,439.3463134765625000,9.3998746871948240,41.9035415649414060,52,102,96,79,79,10451,2146958656,2147516562,2147288301,2147499209,2147082880,2146929417,2147706852,2147122057,3421,-1,8,8065
1369282828,5805,980.9099731445312000,137.2449035644531200,438.0618896484375000,9.4392585754394530,41.4571304321289060,53,105,97,79,80,10441,2146959113,2147518774,2147288082,2147496832,2147084324,2146926582,2147707721,2147121051,3421,-1,8,52635
1369286428,5807,979.4099731445312000,124.1300964355468800,437.6969909667969000,9.4504470825195310,42.6409111022949200,53,99,97,79,79,10442,2146958025,2147513792,2147286811,2147501220,2147085878,2146930843,2147704521,2147123739,545,-1,8,55838
1369290028,5808,985.4699707031250000,140.6685028076172000,437.9815063476562500,9.4417247772216800,41.1593208312988300,52,103,97,78,79,10441,2146960356,2147519469,2147288704,2147502720,2147087817,2146927360,2147706304,2147120667,249,-1,8,18889
1369293628,5806,986.6300048828125000,148.2306976318359400,437.1152954101562500,9.4682769775390620,40.5126914978027340,52,101,96,80,78,10440,2146957961,2147519241,2147289993,2147502016,2147085641,2146933997,2147706724,2147123273,3392,-1,8,62623
1369297228,5804,984.6400146484375000,152.5605010986328000,436.2734985351562500,9.4940805435180660,40.1473007202148440,52,106,96,79,79,10440,2146958555,2147516187,2147288548,2147499309,2147087113,2146926573,2147708864,2147125677,3519,-1,8,51629
1369300828,5807,986.6300048828125000,140.5027008056640600,437.6554870605469000,9.4517164230346680,41.1689300537109400,54,106,96,78,80,10441,2146956406,2147516736,2147285522,2147499648,2147083584,2146928411,2147706486,2147123538,101,-1,8,55257
1369304428,5805,987.4799804687500000,138.8890991210937500,437.7542114257812500,9.4486913681030270,41.3081092834472660,52,100,96,82,79,10440,2146958427,2147517723,2147289737,2147499273,2147085385,2146926829,2147707803,2147124918,1176,-1,8,52034
1369308028,5805,983.5100097656250000,148.8395996093750000,439.0058898925781000,9.4103164672851560,40.4932403564453100,53,106,95,78,79,10427,2146957202,2147520146,2147289325,2147501275,2147083492,2146930349,2147700233,2147120877,2810,-1,8,29022
1369311628,5805,989.7999877929688000,148.4322967529297000,445.2839965820312500,9.2177028656005860,40.6290702819824200,52,106,97,81,81,10409,2146957184,2147514605,2147289947,2147498678,2147085522,2146928237,2147704384,2147121764,3300,-1,8,18895
1369315228,5802,989.9600219726562000,153.0299072265625000,445.1802978515625000,9.2208862304687500,40.2563705444335940,53,110,98,80,80,10419,2146959113,2147518061,2147292452,2147502774,2147081298,2146928118,2147706496,2147119606,3308,-1,8,49057
1369318828,5805,994.2199707031250000,151.9214019775390600,442.0954895019531000,9.3155527114868160,40.2946815490722660,53,107,97,80,79,10415,2146959131,2147514505,2147288923,2147502518,2147082048,2146924205,2147703862,2147124598,3192,-1,8,28163
1369322428,5804,995.9699707031250000,153.4790039062500000,440.2034912109375000,9.3735904693603520,40.1390495300293000,53,105,96,80,80,10417,2146957037,2147518537,2147288018,2147501348,2147083236,2146924781,2147708845,2147121024,3527,-1,8,48447
1369326028,5807,992.2999877929688000,151.4656982421875000,439.2112121582031000,9.4040193557739260,40.2834205627441400,52,102,96,80,80,10416,2146958656,2147515931,2147289746,2147501092,2147086930,2146928868,2147710134,2147123693,209,-1,8,37827
1369329628,5804,985.3599853515625000,148.8643035888672000,451.1982116699219000,9.0360641479492190,40.6917686462402340,54,116,98,82,80,10395,2146961097,2147517878,2147289892,2147503149,2147084635,2146930550,2147704905,2147122724,1363,-1,8,52018
1369333228,5801,995.0900268554688000,136.9729003906250000,454.9501037597656000,8.9207372665405270,41.7551307678222660,53,119,102,81,79,10394,2146958573,2147517723,2147288356,2147501942,2147081243,2146925650,2147710637,2147122084,3463,-1,8,25064
1369336828,5809,998.5900268554688000,148.9759063720703000,455.3417053222656000,8.9086942672729500,40.7513084411621100,52,117,109,80,80,10393,2146956982,2147515940,2147290688,2147501394,2147080256,2146928027,2147708324,2147123328,3579,-1,8,54858
1369340428,5808,1001.0100097656250000,150.1237030029297000,455.5429992675781000,8.9025039672851560,40.6628189086914060,53,122,99,82,80,10388,2146960621,2147518848,2147290569,2147500461,2147087798,2146926875,2147706916,2147122093,30,-1,8,15184
1369344028,5803,999.7999877929688000,140.8744964599609400,456.6250000000000000,8.8692283630371100,41.4472084045410160,52,120,100,86,80,10389,2146960512,2147516635,2147292077,2147503259,2147084937,2146923766,2147708068,2147122998,2440,-1,8,5973
1369347628,5805,1001.0100097656250000,151.4830017089843800,456.6510925292969000,8.8684244155883790,40.5705909729003900,53,122,99,81,79,10385,2146957403,2147515876,2147290742,2147504201,2147086619,2146925833,2147708443,2147121755,3048,-1,8,53972
1369351228,5806,1000.8400268554688000,142.7046051025390600,456.3005981445312500,8.8792057037353520,41.2868804931640600,53,118,99,83,80,10385,2146957796,2147517641,2147290505,2147502482,2147082322,2146924214,2147710116,2147122377,3258,-1,8,15311
1369354828,5806,1001.4199829101562000,145.7667999267578000,455.3819885253906000,8.9074535369873050,41.0159492492675800,53,122,100,81,79,10381,2146959341,2147518308,2147289865,2147503241,2147081865,2146923456,2147709558,2147122642,382,-1,8,42286
1369358428,5808,1003.5300292968750000,146.2263031005859400,453.7569885253906000,8.9574203491210940,40.9510688781738300,52,115,113,83,79,10385,2146959698,2147519414,2147290468,2147503424,2147083968,2146926491,2147709641,2147122770,207,-1,8,59782
1369362028,5807,1001.1599731445312000,143.2967987060547000,455.8298950195312500,8.8936815261840820,41.2281608581543000,53,119,100,82,79,10376,2146962624,2147519460,2147290779,2147501586,2147083593,2146926226,2147707922,2147124068,2920,-1,8,35801
1369365628,5806,995.3300170898438000,141.4367065429687500,457.7687072753906000,8.8340454101562500,41.4181709289550800,53,118,101,82,80,10366,2146959012,2147513353,2147288000,2147504612,2147086299,2146929636,2147708553,2147124352,3054,-1,8,63194
1369369228,5805,999.3499755859375000,152.7835998535156200,459.6866149902344000,8.7750310897827150,40.5168800354003900,53,125,101,83,80,10363,2146958025,2147515008,2147289170,2147509339,2147085202,2146928621,2147708013,2147119003,2954,-1,8,32879
1369372828,5805,1001.8800048828125000,153.1369018554687500,459.7153930664062500,8.7741451263427730,40.4897117614746100,52,122,102,85,81,10361,2146960228,2147516836,2147291053,2147503570,2147087232,2146924288,2147710976,2147122870,3098,-1,8,56959
1369376428,5804,1004.6799926757812000,150.8096008300781200,457.5148925781250000,8.8418531417846680,40.6396598815918000,53,118,102,84,80,10363,2146959652,2147515556,2147289737,2147506368,2147084562,2146924160,2147708278,2147120868,3546,-1,8,3453
1369380028,5806,1006.2600097656250000,144.0726928710937500,457.0494079589844000,8.8561725616455080,41.1834602355957000,53,128,100,82,80,10352,2146958875,2147517732,2147289152,2147502336,2147083209,2146926893,2147708480,2147121590,684,-1,8,21732
1369383628,5806,1006.9500122070312000,148.3414001464843800,455.5864868164062500,8.9011659622192380,40.8073310852050800,52,115,100,83,80,10357,2146958482,2147519222,2147288146,2147503186,2147087204,2146923821,2147713106,2147124598,390,-1,8,3835
1369387228,5806,1006.1500244140625000,145.6819000244140600,455.3276977539062500,8.9091262817382810,41.0225105285644500,52,119,101,82,80,10318,2146962898,2147517805,2147288164,2147506130,2147083520,2146923529,2147707428,2147123437,723,-1,8,33394
1369390828,5805,1003.8099975585938000,144.2281036376953000,455.5122070312500000,8.9034509658813480,41.1454811096191400,52,123,100,81,80,10314,2146959378,2147518116,2147290861,2147504237,2147085458,2146924416,2147708105,2147124086,3364,-1,8,17396
1369394428,5805,999.2500000000000000,146.1204071044922000,459.0122070312500000,8.7957849502563480,41.0460395812988300,53,122,101,82,80,10307,2146958235,2147518838,2147291657,2147504758,2147084178,2146919652,2147707090,2147122166,3436,-1,8,12586
1369398028,5805,1002.3099975585938000,150.9535980224609400,458.0989074707031000,8.8238868713378900,40.6381912231445300,53,121,102,83,80,10307,2146961408,2147515913,2147290715,2147504896,2147083821,2146924918,2147708333,2147121371,3403,-1,8,25522
1369401628,5803,1000.9299926757812000,145.1165924072265600,461.5342102050781000,8.7181615829467770,41.1711883544921900,53,122,101,84,79,10302,2146960402,2147516964,2147292160,2147503021,2147086281,2146918400,2147711387,2147120758,3365,-1,8,41423
1369403455,5804,999.5100097656250000,144.7725982666015600,461.0321044921875000,8.7336177825927730,41.1912612915039060,53,118,103,83,79,10365,2146959616,2147517613,2147291355,2147506944,2147086445,2146919936,2147709878,2147123364,3235,-1,8,64397
